Location: Maignaut
(43.8886°N, 0.4051°E)
Time: 19:55:37
(UTC+00:00)

ATLAS 5 CENTAUR R/B - Pass Details

Date: 17 January 2021
Orbit: 511 x 1147 km, 63.3° (Epoch: 16 February)

Event Time Altitude Azimuth Distance (km) Brightness Sun altitude
Rises 17:51:08 0° 215° (SW) 2,620 5.7 -11.1°
Reaches altitude 10° 17:53:12 10° 215° (SW) 1,762 4.7 -11.4°
Maximum altitude 17:57:06 89° 132° (SE) 565 1.3 -12.1°
Enters shadow 18:00:57 13° 37° (NE) 1,765 3.4 -12.8°
